北斗三号 M6 (BEIDOU 3M6)

基本信息
目录编号:
43208
目录名称:
BEIDOU 3M6
国际标识:
2018-018B
轨道中心:
EARTH
卫星名称:
北斗三号 M6
卫星全名:
北斗三号 M6 (BEIDOU 3M6)
卫星状态:
在轨 (已飞行2952 天)
发射日期:
2018-02-12 UTC
国别 :
中国 (CN)
星等 :
--
轨道信息
数据来源 国际轨道数据 AOE轨道数据
星历时间 2026-03-13T11:39:54+0800
23小时前
查看轨道信息
2026-03-10T23:00:00+0800
3天前
查看轨道信息
半长轴 27906.149km 27906.129km
偏心率 0.001004 0.0009974
轨道倾角 56.567° 56.565°
近地点辐角 319.642° 319.909°
升交点赤经 66.317° 66.400°
平近点角 40.305° 145.340°
近地点 21499.994km 21500.158km
远地点 21556.03km 21555.826km
周期 773.232分钟 773.231分钟
每日圈数 1.862314 1.862316
详细信息
平衡模式:
三轴稳定
制造商(研发单位):
中国空间技术研究院
制造商所在国:
中国
使用方式:
暂无
工作目标:
为全球用户提供连续、稳定、可靠的北斗导航、定位服务
预期寿命:
12年
卫星简介
北斗卫星导航系统是中国着眼于国家安全和经济社会发展需要,自主建设运行的全球卫星导航系统,是为全球用户提供全天候、全天时、高精度的定位、导航和授时服务的国家重要时空基础设施。该卫星仍在工作。
2D轨道图
3D轨道图
轨道高度分析图
轨道倾角分析图
轨道综合分析图
查看轨道综合分析图